Time,TemperatureF,DewpointF,PressureIn,WindDirection,WindDirectionDegrees,WindSpeedMPH,WindSpeedGustMPH,Humidity,HourlyPrecipIn,Conditions,Clouds,dailyrainin,SoftwareType,DateUTC
2013-04-24 00:02:00,33.3,33.0,30.26,North,10,1.2,3.7,99,0.00,,,0.00,TxWx,2013-04-24 05:02:00,
2013-04-24 00:07:00,33.2,33.0,30.26,NE,55,1.2,3.7,99,0.00,,,0.00,TxWx,2013-04-24 05:07:00,
2013-04-24 00:12:00,33.2,33.0,30.25,NNW,347,0.0,1.2,99,0.00,,,0.00,TxWx,2013-04-24 05:12:00,
2013-04-24 00:18:00,33.1,33.0,30.25,NNW,347,4.3,5.0,99,0.00,,,0.00,TxWx,2013-04-24 05:18:00,
2013-04-24 00:23:00,33.2,33.0,30.25,NE,55,1.2,5.0,99,0.00,,,0.00,TxWx,2013-04-24 05:23:00,
2013-04-24 00:28:00,33.2,33.0,30.26,SE,145,0.6,3.7,99,0.00,,,0.00,TxWx,2013-04-24 05:28:00,
2013-04-24 00:33:00,33.2,33.0,30.26,NNW,347,2.5,3.1,100,0.00,,,0.00,TxWx,2013-04-24 05:33:00,
2013-04-24 00:39:00,33.2,33.0,30.27,NNE,32,2.5,2.5,100,0.00,,,0.00,TxWx,2013-04-24 05:39:00,
2013-04-24 00:44:00,33.2,33.0,30.26,ENE,77,0.6,1.2,100,0.00,,,0.00,TxWx,2013-04-24 05:44:00,
2013-04-24 00:49:00,33.2,33.0,30.26,NNE,32,0.0,1.9,100,0.00,,,0.00,TxWx,2013-04-24 05:49:00,
2013-04-24 00:55:00,33.2,33.0,30.26,WSW,257,5.6,5.6,100,0.00,,,0.00,TxWx,2013-04-24 05:55:00,
2013-04-24 01:01:00,33.1,33.0,30.26,NNW,347,1.9,3.1,100,0.00,,,0.00,TxWx,2013-04-24 06:01:00,
2013-04-24 01:06:00,33.2,33.0,30.26,West,280,2.5,3.1,100,0.00,,,0.00,TxWx,2013-04-24 06:06:00,
2013-04-24 01:11:00,33.2,33.0,30.26,West,280,3.1,6.2,100,0.00,,,0.00,TxWx,2013-04-24 06:11:00,
2013-04-24 01:16:00,33.3,33.0,30.26,West,280,1.9,1.9,100,0.00,,,0.00,TxWx,2013-04-24 06:16:00,
2013-04-24 01:22:00,33.2,33.0,30.26,NW,325,2.5,5.6,100,0.00,,,0.00,TxWx,2013-04-24 06:22:00,
2013-04-24 01:27:00,33.2,33.0,30.25,WNW,302,1.9,6.8,100,0.00,,,0.00,TxWx,2013-04-24 06:27:00,
2013-04-24 01:32:00,33.2,33.0,30.25,NNW,347,1.2,3.7,100,0.00,,,0.00,TxWx,2013-04-24 06:32:00,
2013-04-24 01:38:00,33.4,33.0,30.25,NW,325,1.9,3.1,100,0.00,,,0.00,TxWx,2013-04-24 06:38:00,
2013-04-24 01:43:00,33.4,33.0,30.26,NW,325,1.9,4.3,100,0.00,,,0.00,TxWx,2013-04-24 06:43:00,
2013-04-24 01:48:00,33.5,33.0,30.25,NW,325,0.6,3.7,100,0.00,,,0.00,TxWx,2013-04-24 06:48:00,
2013-04-24 01:54:00,33.5,34.0,30.24,ENE,77,0.0,1.9,100,0.00,,,0.00,TxWx,2013-04-24 06:54:00,
2013-04-24 01:59:00,33.5,33.0,30.24,North,10,0.6,5.0,100,0.00,,,0.00,TxWx,2013-04-24 06:59:00,
2013-04-24 02:04:00,33.5,34.0,30.25,NW,325,1.9,7.4,100,0.00,,,0.00,TxWx,2013-04-24 07:04:00,
2013-04-24 02:10:00,33.5,34.0,30.24,NW,325,0.6,1.9,100,0.00,,,0.00,TxWx,2013-04-24 07:10:00,
2013-04-24 02:15:00,33.6,34.0,30.24,WNW,302,2.5,4.3,100,0.00,,,0.00,TxWx,2013-04-24 07:15:00,
2013-04-24 02:20:00,33.6,34.0,30.24,WNW,302,4.3,6.8,100,0.00,,,0.00,TxWx,2013-04-24 07:20:00,
2013-04-24 02:26:00,33.5,34.0,30.24,SE,145,1.2,3.1,100,0.00,,,0.00,TxWx,2013-04-24 07:26:00,
2013-04-24 02:31:00,33.6,34.0,30.24,NW,325,0.6,2.5,100,0.00,,,0.00,TxWx,2013-04-24 07:31:00,
2013-04-24 02:36:00,33.6,34.0,30.24,SW,235,1.2,3.1,99,0.00,,,0.00,TxWx,2013-04-24 07:36:00,
2013-04-24 02:42:00,33.6,34.0,30.24,NW,325,1.2,3.7,99,0.00,,,0.00,TxWx,2013-04-24 07:42:00,
2013-04-24 02:47:00,33.6,34.0,30.24,West,280,5.6,6.2,99,0.00,,,0.00,TxWx,2013-04-24 07:47:00,
2013-04-24 02:52:00,33.6,34.0,30.24,WNW,302,0.6,3.7,99,0.00,,,0.00,TxWx,2013-04-24 07:52:00,
2013-04-24 02:58:00,33.4,33.0,30.24,West,280,4.3,4.3,99,0.00,,,0.00,TxWx,2013-04-24 07:58:00,
2013-04-24 03:03:00,33.4,32.0,30.25,NW,325,1.2,3.7,98,0.00,,,0.00,TxWx,2013-04-24 08:03:00,
2013-04-24 03:08:00,33.4,32.0,30.24,NW,325,0.6,1.9,97,0.00,,,0.00,TxWx,2013-04-24 08:08:00,
2013-04-24 03:14:00,33.3,32.0,30.25,NNW,347,1.2,6.8,97,0.00,,,0.00,TxWx,2013-04-24 08:14:00,
2013-04-24 03:19:00,33.3,31.0,30.24,WNW,302,5.6,6.2,96,0.00,,,0.00,TxWx,2013-04-24 08:19:00,
2013-04-24 03:24:00,33.3,31.0,30.24,NW,325,0.0,1.2,96,0.00,,,0.00,TxWx,2013-04-24 08:24:00,
2013-04-24 03:29:00,33.3,31.0,30.24,NNE,32,0.6,1.2,96,0.00,,,0.00,TxWx,2013-04-24 08:29:00,
2013-04-24 03:35:00,33.3,31.0,30.24,ENE,77,0.0,1.9,96,0.00,,,0.00,TxWx,2013-04-24 08:35:00,
2013-04-24 03:41:00,33.2,31.0,30.24,North,10,1.9,4.3,95,0.00,,,0.00,TxWx,2013-04-24 08:41:00,
2013-04-24 03:46:00,33.1,31.0,30.23,NNE,32,1.2,5.6,95,0.00,,,0.00,TxWx,2013-04-24 08:46:00,
2013-04-24 03:51:00,33.1,30.0,30.24,WNW,302,1.9,5.6,94,0.00,,,0.00,TxWx,2013-04-24 08:51:00,
2013-04-24 03:57:00,33.0,30.0,30.25,ENE,77,2.5,7.4,94,0.00,,,0.00,TxWx,2013-04-24 08:57:00,
2013-04-24 04:02:00,33.0,30.0,30.25,NW,325,3.7,3.7,94,0.00,,,0.00,TxWx,2013-04-24 09:02:00,
2013-04-24 04:07:00,32.9,30.0,30.25,WNW,302,0.6,2.5,94,0.00,,,0.00,TxWx,2013-04-24 09:07:00,
2013-04-24 04:13:00,32.8,30.0,30.25,West,280,4.3,5.0,94,0.00,,,0.00,TxWx,2013-04-24 09:13:00,
2013-04-24 04:18:00,32.7,30.0,30.26,West,280,2.5,5.6,94,0.00,,,0.00,TxWx,2013-04-24 09:18:00,
2013-04-24 04:23:00,32.4,29.0,30.26,North,10,0.0,1.2,93,0.00,,,0.00,TxWx,2013-04-24 09:23:00,
2013-04-24 04:29:00,32.2,29.0,30.26,West,280,1.2,2.5,93,0.00,,,0.00,TxWx,2013-04-24 09:29:00,
2013-04-24 04:34:00,32.0,29.0,30.26,West,280,1.2,3.1,93,0.00,,,0.00,TxWx,2013-04-24 09:34:00,
2013-04-24 04:40:00,32.0,29.0,30.26,NNW,347,1.2,2.5,93,0.00,,,0.00,TxWx,2013-04-24 09:40:00,
2013-04-24 04:45:00,31.7,29.0,30.27,WNW,302,1.9,4.3,93,0.00,,,0.00,TxWx,2013-04-24 09:45:00,
2013-04-24 04:50:00,31.6,29.0,30.27,West,280,1.2,1.2,93,0.00,,,0.00,TxWx,2013-04-24 09:50:00,
2013-04-24 04:55:00,31.4,28.0,30.27,West,280,1.9,4.3,93,0.00,,,0.00,TxWx,2013-04-24 09:55:00,
2013-04-24 05:01:00,31.3,28.0,30.27,WSW,257,4.3,4.3,93,0.00,,,0.00,TxWx,2013-04-24 10:01:00,
2013-04-24 05:06:00,31.2,28.0,30.27,NW,325,0.0,1.2,93,0.00,,,0.00,TxWx,2013-04-24 10:06:00,
2013-04-24 05:11:00,31.1,28.0,30.28,West,280,2.5,3.7,93,0.00,,,0.00,TxWx,2013-04-24 10:11:00,
2013-04-24 05:16:00,31.1,28.0,30.28,NW,325,1.9,1.9,93,0.00,,,0.00,TxWx,2013-04-24 10:16:00,
2013-04-24 05:22:00,30.9,28.0,30.28,WNW,302,1.2,5.0,93,0.00,,,0.00,TxWx,2013-04-24 10:22:00,
2013-04-24 05:27:00,30.8,28.0,30.28,WNW,302,2.5,4.3,93,0.00,,,0.00,TxWx,2013-04-24 10:27:00,
2013-04-24 05:32:00,30.5,27.0,30.28,NNE,32,0.6,5.6,93,0.00,,,0.00,TxWx,2013-04-24 10:32:00,
2013-04-24 05:38:00,30.4,27.0,30.29,NW,325,0.6,1.9,92,0.00,,,0.00,TxWx,2013-04-24 10:38:00,
2013-04-24 05:43:00,30.3,27.0,30.29,NW,325,1.9,2.5,92,0.00,,,0.00,TxWx,2013-04-24 10:43:00,
2013-04-24 05:48:00,30.2,27.0,30.30,NW,325,4.3,5.0,92,0.00,,,0.00,TxWx,2013-04-24 10:48:00,
2013-04-24 05:54:00,30.1,27.0,30.30,NNW,347,0.0,1.2,92,0.00,,,0.00,TxWx,2013-04-24 10:54:00,
2013-04-24 05:59:00,30.0,27.0,30.30,WNW,302,2.5,3.1,92,0.00,,,0.00,TxWx,2013-04-24 10:59:00,
2013-04-24 06:04:00,30.0,27.0,30.30,NNW,347,0.0,1.9,92,0.00,,,0.00,TxWx,2013-04-24 11:04:00,
2013-04-24 06:09:00,29.8,27.0,30.30,WSW,257,1.2,5.0,92,0.00,,,0.00,TxWx,2013-04-24 11:09:00,
2013-04-24 06:15:00,29.7,27.0,30.30,WSW,257,0.6,3.1,92,0.00,,,0.00,TxWx,2013-04-24 11:15:00,
2013-04-24 06:21:00,29.6,27.0,30.29,WNW,302,0.0,1.9,92,0.00,,,0.00,TxWx,2013-04-24 11:21:00,
2013-04-24 06:26:00,29.4,26.0,30.29,North,10,1.2,3.1,92,0.00,,,0.00,TxWx,2013-04-24 11:26:00,
2013-04-24 06:32:00,29.5,26.0,30.29,NNW,347,0.0,1.2,93,0.00,,,0.00,TxWx,2013-04-24 11:32:00,
2013-04-24 06:37:00,29.4,26.0,30.28,NNW,347,0.6,1.2,93,0.00,,,0.00,TxWx,2013-04-24 11:37:00,
2013-04-24 06:42:00,29.3,26.0,30.29,WNW,302,0.6,2.5,93,0.00,,,0.00,TxWx,2013-04-24 11:42:00,
2013-04-24 06:47:00,29.3,26.0,30.29,NNW,347,0.0,1.9,93,0.00,,,0.00,TxWx,2013-04-24 11:47:00,
2013-04-24 06:52:00,29.3,26.0,30.29,West,280,2.5,2.5,93,0.00,,,0.00,TxWx,2013-04-24 11:52:00,
2013-04-24 06:58:00,29.2,26.0,30.29,NNW,347,0.6,2.5,93,0.00,,,0.00,TxWx,2013-04-24 11:58:00,
2013-04-24 07:03:00,29.2,26.0,30.30,West,280,0.6,1.2,93,0.00,,,0.00,TxWx,2013-04-24 12:03:00,
2013-04-24 07:09:00,29.2,26.0,30.30,North,10,0.0,2.5,93,0.00,,,0.00,TxWx,2013-04-24 12:09:00,
2013-04-24 07:14:00,29.2,26.0,30.31,NNW,347,0.0,0.6,93,0.00,,,0.00,TxWx,2013-04-24 12:14:00,
2013-04-24 07:19:00,29.3,26.0,30.31,NW,325,1.9,3.7,93,0.00,,,0.00,TxWx,2013-04-24 12:19:00,
2013-04-24 07:24:00,29.3,26.0,30.31,NNW,347,0.6,4.3,92,0.00,,,0.00,TxWx,2013-04-24 12:24:00,
2013-04-24 07:29:00,29.4,26.0,30.31,NNE,32,0.6,2.5,92,0.00,,,0.00,TxWx,2013-04-24 12:29:00,
2013-04-24 07:35:00,29.3,26.0,30.31,WNW,302,2.5,4.3,91,0.00,,,0.00,TxWx,2013-04-24 12:35:00,
2013-04-24 07:40:00,29.6,26.0,30.32,NW,325,0.6,3.1,90,0.00,,,0.00,TxWx,2013-04-24 12:40:00,
2013-04-24 07:45:00,30.0,26.0,30.32,WSW,257,1.2,3.1,90,0.00,,,0.00,TxWx,2013-04-24 12:45:00,
2013-04-24 07:51:00,30.3,26.0,30.33,WNW,302,2.5,4.3,88,0.00,,,0.00,TxWx,2013-04-24 12:51:00,
2013-04-24 07:56:00,31.0,27.0,30.33,NNE,32,1.9,4.3,88,0.00,,,0.00,TxWx,2013-04-24 12:56:00,
2013-04-24 08:01:00,31.7,27.0,30.33,NNW,347,1.9,6.8,86,0.00,,,0.00,TxWx,2013-04-24 13:01:00,
2013-04-24 08:07:00,32.1,27.0,30.34,WNW,302,2.5,6.2,85,0.00,,,0.00,TxWx,2013-04-24 13:07:00,
2013-04-24 08:12:00,32.1,27.0,30.33,NW,325,1.2,1.2,84,0.00,,,0.00,TxWx,2013-04-24 13:12:00,
2013-04-24 08:17:00,31.9,27.0,30.34,WNW,302,5.6,6.8,84,0.00,,,0.00,TxWx,2013-04-24 13:17:00,
2013-04-24 08:24:00,31.7,27.0,30.34,North,10,0.6,3.1,84,0.00,,,0.00,TxWx,2013-04-24 13:24:00,
2013-04-24 08:29:00,31.7,26.0,30.34,West,280,3.7,6.2,83,0.00,,,0.00,TxWx,2013-04-24 13:29:00,
2013-04-24 08:34:00,31.8,26.0,30.34,NW,325,0.6,4.3,83,0.00,,,0.00,TxWx,2013-04-24 13:34:00,
2013-04-24 08:40:00,32.0,26.0,30.33,NW,325,6.2,6.8,82,0.00,,,0.00,TxWx,2013-04-24 13:40:00,
2013-04-24 08:45:00,32.4,26.0,30.34,NNE,32,3.7,4.3,81,0.00,,,0.00,TxWx,2013-04-24 13:45:00,
2013-04-24 08:50:00,32.7,27.0,30.34,WNW,302,2.5,2.5,80,0.00,,,0.00,TxWx,2013-04-24 13:50:00,
2013-04-24 08:56:00,32.9,26.0,30.35,West,280,3.1,5.6,79,0.00,,,0.00,TxWx,2013-04-24 13:56:00,
2013-04-24 09:01:00,33.0,26.0,30.34,ENE,77,1.9,5.0,79,0.00,,,0.00,TxWx,2013-04-24 14:01:00,
2013-04-24 09:06:00,33.1,25.0,30.34,NNW,347,3.1,6.2,77,0.00,,,0.00,TxWx,2013-04-24 14:06:00,
2013-04-24 09:11:00,33.4,26.0,30.34,NW,325,3.1,3.1,78,0.00,,,0.00,TxWx,2013-04-24 14:11:00,
2013-04-24 09:18:00,33.6,27.0,30.34,North,10,1.9,7.4,77,0.00,,,0.00,TxWx,2013-04-24 14:18:00,
2013-04-24 09:23:00,33.7,26.0,30.34,WNW,302,1.9,4.3,74,0.00,,,0.00,TxWx,2013-04-24 14:23:00,
2013-04-24 09:28:00,34.2,26.0,30.34,NNW,347,2.5,5.6,77,0.00,,,0.00,TxWx,2013-04-24 14:28:00,
2013-04-24 09:34:00,34.4,26.0,30.33,North,10,6.2,6.2,75,0.00,,,0.00,TxWx,2013-04-24 14:34:00,
2013-04-24 09:39:00,34.9,26.0,30.33,NNW,347,3.1,4.3,72,0.00,,,0.00,TxWx,2013-04-24 14:39:00,
2013-04-24 09:44:00,35.3,25.0,30.33,NNE,32,0.6,3.7,70,0.00,,,0.00,TxWx,2013-04-24 14:44:00,
2013-04-24 09:49:00,36.0,27.0,30.33,East,100,3.1,3.7,74,0.00,,,0.00,TxWx,2013-04-24 14:49:00,
2013-04-24 09:55:00,36.2,26.0,30.32,South,190,1.2,4.3,70,0.00,,,0.00,TxWx,2013-04-24 14:55:00,
2013-04-24 10:00:00,36.5,26.0,30.32,NE,55,4.3,5.6,71,0.00,,,0.00,TxWx,2013-04-24 15:00:00,
2013-04-24 10:05:00,37.1,27.0,30.33,NNW,347,1.2,3.1,71,0.00,,,0.00,TxWx,2013-04-24 15:05:00,
2013-04-24 10:10:00,37.4,26.0,30.33,WSW,257,1.9,5.0,68,0.00,,,0.00,TxWx,2013-04-24 15:10:00,
2013-04-24 10:16:00,37.7,27.0,30.32,West,280,7.4,8.0,67,0.00,,,0.00,TxWx,2013-04-24 15:16:00,
2013-04-24 10:21:00,38.5,28.0,30.33,WSW,257,0.6,5.6,70,0.00,,,0.00,TxWx,2013-04-24 15:21:00,
2013-04-24 10:27:00,38.8,28.0,30.33,ENE,77,1.9,3.7,66,0.00,,,0.00,TxWx,2013-04-24 15:27:00,
2013-04-24 10:32:00,38.7,27.0,30.33,WNW,302,4.3,6.2,64,0.00,,,0.00,TxWx,2013-04-24 15:32:00,
2013-04-24 10:37:00,39.2,27.0,30.32,NNW,347,2.5,3.1,65,0.00,,,0.00,TxWx,2013-04-24 15:37:00,
2013-04-24 10:43:00,39.6,27.0,30.32,North,10,3.1,3.7,62,0.00,,,0.00,TxWx,2013-04-24 15:43:00,
2013-04-24 10:48:00,40.4,28.0,30.32,ENE,77,2.5,4.3,64,0.00,,,0.00,TxWx,2013-04-24 15:48:00,
2013-04-24 10:54:00,40.8,27.0,30.33,North,10,1.9,5.6,61,0.00,,,0.00,TxWx,2013-04-24 15:54:00,
2013-04-24 10:59:00,41.8,30.0,30.32,WNW,302,5.0,5.6,66,0.00,,,0.00,TxWx,2013-04-24 15:59:00,
2013-04-24 11:04:00,41.9,29.0,30.32,WSW,257,4.3,4.3,61,0.00,,,0.00,TxWx,2013-04-24 16:04:00,
2013-04-24 11:09:00,42.2,28.0,30.32,East,100,1.9,4.3,59,0.00,,,0.00,TxWx,2013-04-24 16:09:00,
2013-04-24 11:15:00,41.7,27.0,30.33,WNW,302,3.1,5.6,57,0.00,,,0.00,TxWx,2013-04-24 16:15:00,
2013-04-24 11:21:00,42.4,28.0,30.34,WNW,302,1.2,6.2,59,0.00,,,0.00,TxWx,2013-04-24 16:21:00,
2013-04-24 11:26:00,42.7,29.0,30.34,ESE,122,1.9,5.6,59,0.00,,,0.00,TxWx,2013-04-24 16:26:00,
2013-04-24 11:32:00,43.4,30.0,30.34,WNW,302,2.5,8.7,62,0.00,,,0.00,TxWx,2013-04-24 16:32:00,
2013-04-24 11:37:00,44.5,30.0,30.34,NNE,32,1.9,3.7,61,0.00,,,0.00,TxWx,2013-04-24 16:37:00,
2013-04-24 11:42:00,44.7,30.0,30.34,North,10,2.5,3.7,58,0.00,,,0.00,TxWx,2013-04-24 16:42:00,
2013-04-24 11:48:00,43.9,27.0,30.34,West,280,5.0,5.0,53,0.00,,,0.00,TxWx,2013-04-24 16:48:00,
2013-04-24 11:53:00,44.5,29.0,30.33,NNW,347,3.1,4.3,57,0.00,,,0.00,TxWx,2013-04-24 16:53:00,
2013-04-24 11:58:00,44.4,27.0,30.34,WNW,302,5.6,9.3,54,0.00,,,0.00,TxWx,2013-04-24 16:58:00,
2013-04-24 12:04:00,44.8,28.0,30.34,South,190,0.6,2.5,53,0.00,,,0.00,TxWx,2013-04-24 17:04:00,
2013-04-24 12:09:00,45.0,26.0,30.33,SW,235,3.1,5.0,50,0.00,,,0.00,TxWx,2013-04-24 17:09:00,
2013-04-24 12:14:00,45.6,29.0,30.34,NNW,347,4.3,10.5,54,0.00,,,0.00,TxWx,2013-04-24 17:14:00,
2013-04-24 12:20:00,46.3,30.0,30.33,SSE,167,1.2,5.0,56,0.00,,,0.00,TxWx,2013-04-24 17:20:00,
2013-04-24 12:25:00,46.1,29.0,30.33,NNW,347,1.2,2.5,54,0.00,,,0.00,TxWx,2013-04-24 17:25:00,
2013-04-24 12:30:00,46.4,29.0,30.33,West,280,5.0,5.6,54,0.00,,,0.00,TxWx,2013-04-24 17:30:00,
2013-04-24 12:36:00,45.5,28.0,30.33,North,10,5.0,7.4,51,0.00,,,0.00,TxWx,2013-04-24 17:36:00,
2013-04-24 12:41:00,46.2,29.0,30.33,WSW,257,5.6,6.2,53,0.00,,,0.00,TxWx,2013-04-24 17:41:00,
2013-04-24 12:46:00,46.2,30.0,30.33,West,280,3.1,4.3,56,0.00,,,0.00,TxWx,2013-04-24 17:46:00,
2013-04-24 12:52:00,46.6,29.0,30.33,NW,325,7.4,7.4,51,0.00,,,0.00,TxWx,2013-04-24 17:52:00,
2013-04-24 12:57:00,46.2,27.0,30.33,SW,235,1.2,5.0,49,0.00,,,0.00,TxWx,2013-04-24 17:57:00,
2013-04-24 13:02:00,46.6,29.0,30.33,South,190,3.7,3.7,53,0.00,,,0.00,TxWx,2013-04-24 18:02:00,
2013-04-24 13:07:00,46.3,27.0,30.32,SW,235,5.0,9.9,49,0.00,,,0.00,TxWx,2013-04-24 18:07:00,
2013-04-24 13:13:00,46.0,28.0,30.32,WSW,257,1.2,4.3,51,0.00,,,0.00,TxWx,2013-04-24 18:13:00,
2013-04-24 13:18:00,47.0,30.0,30.32,WSW,257,1.2,8.0,53,0.00,,,0.00,TxWx,2013-04-24 18:18:00,
2013-04-24 13:23:00,46.9,29.0,30.32,SW,235,2.5,3.7,52,0.00,,,0.00,TxWx,2013-04-24 18:23:00,
2013-04-24 13:28:00,47.9,31.0,30.32,North,10,3.1,4.3,53,0.00,,,0.00,TxWx,2013-04-24 18:28:00,
2013-04-24 13:34:00,48.7,33.0,30.32,WNW,302,3.1,5.6,55,0.00,,,0.00,TxWx,2013-04-24 18:34:00,
2013-04-24 13:39:00,47.5,29.0,30.32,SSW,212,3.7,7.4,51,0.00,,,0.00,TxWx,2013-04-24 18:39:00,
2013-04-24 13:44:00,48.0,31.0,30.32,WNW,302,2.5,5.0,54,0.00,,,0.00,TxWx,2013-04-24 18:44:00,
2013-04-24 13:49:00,47.3,28.0,30.32,WSW,257,2.5,4.3,50,0.00,,,0.00,TxWx,2013-04-24 18:49:00,
2013-04-24 13:55:00,48.2,30.0,30.32,NNE,32,3.1,8.7,51,0.00,,,0.00,TxWx,2013-04-24 18:55:00,
2013-04-24 14:00:00,48.4,29.0,30.32,SSW,212,3.1,6.8,51,0.00,,,0.00,TxWx,2013-04-24 19:00:00,
2013-04-24 14:06:00,49.0,30.0,30.33,WNW,302,3.1,4.3,51,0.00,,,0.00,TxWx,2013-04-24 19:06:00,
2013-04-24 14:11:00,49.3,29.0,30.33,NNW,347,1.2,5.0,49,0.00,,,0.00,TxWx,2013-04-24 19:11:00,
2013-04-24 14:16:00,50.1,33.0,30.33,North,10,3.7,4.3,52,0.00,,,0.00,TxWx,2013-04-24 19:16:00,
2013-04-24 14:21:00,50.2,32.0,30.32,WNW,302,5.6,8.7,51,0.00,,,0.00,TxWx,2013-04-24 19:21:00,
2013-04-24 14:27:00,49.2,30.0,30.32,SW,235,3.1,5.0,50,0.00,,,0.00,TxWx,2013-04-24 19:27:00,
2013-04-24 14:32:00,49.5,32.0,30.32,SSW,212,5.0,6.2,52,0.00,,,0.00,TxWx,2013-04-24 19:32:00,
2013-04-24 14:37:00,49.8,32.0,30.32,SW,235,5.6,7.4,51,0.00,,,0.00,TxWx,2013-04-24 19:37:00,
2013-04-24 14:42:00,49.6,32.0,30.32,SW,235,3.7,5.0,50,0.00,,,0.00,TxWx,2013-04-24 19:42:00,
2013-04-24 14:48:00,49.8,32.0,30.32,WSW,257,5.6,7.4,50,0.00,,,0.00,TxWx,2013-04-24 19:48:00,
2013-04-24 14:53:00,50.1,29.0,30.31,WNW,302,5.6,5.6,46,0.00,,,0.00,TxWx,2013-04-24 19:53:00,
2013-04-24 14:58:00,50.6,30.0,30.31,WNW,302,6.2,8.0,47,0.00,,,0.00,TxWx,2013-04-24 19:58:00,
2013-04-24 15:04:00,50.2,30.0,30.31,NNW,347,3.1,8.0,47,0.00,,,0.00,TxWx,2013-04-24 20:04:00,
2013-04-24 15:09:00,50.0,29.0,30.31,West,280,4.3,5.0,46,0.00,,,0.00,TxWx,2013-04-24 20:09:00,
2013-04-24 15:14:00,50.4,29.0,30.31,SSW,212,3.7,10.5,46,0.00,,,0.00,TxWx,2013-04-24 20:14:00,
2013-04-24 15:19:00,50.7,29.0,30.30,SSW,212,3.1,8.0,45,0.00,,,0.00,TxWx,2013-04-24 20:19:00,
2013-04-24 15:25:00,50.9,32.0,30.30,SSW,212,3.7,6.8,49,0.00,,,0.00,TxWx,2013-04-24 20:25:00,
2013-04-24 15:30:00,51.5,33.0,30.30,NW,325,9.3,9.9,48,0.00,,,0.00,TxWx,2013-04-24 20:30:00,
2013-04-24 15:35:00,50.6,29.0,30.30,WSW,257,3.1,8.0,44,0.00,,,0.00,TxWx,2013-04-24 20:35:00,
2013-04-24 15:40:00,51.0,30.0,30.30,WSW,257,6.8,6.8,47,0.00,,,0.00,TxWx,2013-04-24 20:40:00,
2013-04-24 15:46:00,51.2,30.0,30.29,SW,235,8.7,10.5,46,0.00,,,0.00,TxWx,2013-04-24 20:46:00,
2013-04-24 15:51:00,50.7,29.0,30.29,WSW,257,6.2,9.3,44,0.00,,,0.00,TxWx,2013-04-24 20:51:00,
2013-04-24 15:56:00,51.7,30.0,30.29,NNW,347,9.3,9.3,45,0.00,,,0.00,TxWx,2013-04-24 20:56:00,
2013-04-24 16:02:00,51.4,29.0,30.29,WSW,257,5.6,6.2,44,0.00,,,0.00,TxWx,2013-04-24 21:02:00,
2013-04-24 16:07:00,52.1,29.0,30.28,WNW,302,7.4,9.9,43,0.00,,,0.00,TxWx,2013-04-24 21:07:00,
2013-04-24 16:12:00,52.1,29.0,30.28,NW,325,2.5,4.3,43,0.00,,,0.00,TxWx,2013-04-24 21:12:00,
2013-04-24 16:18:00,51.7,29.0,30.28,SW,235,5.0,9.3,43,0.00,,,0.00,TxWx,2013-04-24 21:18:00,
2013-04-24 16:23:00,52.1,29.0,30.28,WSW,257,6.2,10.5,42,0.00,,,0.00,TxWx,2013-04-24 21:23:00,
2013-04-24 16:29:00,52.0,29.0,30.28,WNW,302,5.0,6.8,43,0.00,,,0.00,TxWx,2013-04-24 21:29:00,
2013-04-24 16:34:00,52.3,29.0,30.27,WSW,257,5.6,9.3,44,0.00,,,0.00,TxWx,2013-04-24 21:34:00,
2013-04-24 16:40:00,52.6,30.0,30.27,West,280,6.8,9.9,44,0.00,,,0.00,TxWx,2013-04-24 21:40:00,
2013-04-24 16:45:00,51.8,28.0,30.27,SW,235,7.4,12.4,42,0.00,,,0.00,TxWx,2013-04-24 21:45:00,
2013-04-24 16:51:00,51.6,29.0,30.27,SW,235,4.3,5.0,42,0.00,,,0.00,TxWx,2013-04-24 21:51:00,
2013-04-24 16:56:00,51.4,29.0,30.27,WSW,257,5.6,6.8,45,0.00,,,0.00,TxWx,2013-04-24 21:56:00,
2013-04-24 17:01:00,51.6,33.0,30.27,WSW,257,3.7,6.8,48,0.00,,,0.00,TxWx,2013-04-24 22:01:00,
2013-04-24 17:06:00,51.8,31.0,30.26,NW,325,3.1,5.0,46,0.00,,,0.00,TxWx,2013-04-24 22:06:00,
2013-04-24 17:12:00,52.0,31.0,30.27,SSW,212,6.8,6.8,46,0.00,,,0.00,TxWx,2013-04-24 22:12:00,
2013-04-24 17:17:00,51.8,30.0,30.26,SW,235,3.7,6.8,45,0.00,,,0.00,TxWx,2013-04-24 22:17:00,
2013-04-24 17:23:00,51.7,31.0,30.27,SSW,212,6.2,7.4,46,0.00,,,0.00,TxWx,2013-04-24 22:23:00,
2013-04-24 17:28:00,51.8,30.0,30.27,WSW,257,2.5,3.7,45,0.00,,,0.00,TxWx,2013-04-24 22:28:00,
2013-04-24 17:33:00,51.8,30.0,30.26,SW,235,3.7,8.0,45,0.00,,,0.00,TxWx,2013-04-24 22:33:00,
2013-04-24 17:39:00,51.7,30.0,30.26,West,280,5.0,9.3,45,0.00,,,0.00,TxWx,2013-04-24 22:39:00,
2013-04-24 17:44:00,52.0,30.0,30.26,WNW,302,3.7,8.7,45,0.00,,,0.00,TxWx,2013-04-24 22:44:00,
2013-04-24 17:49:00,51.7,30.0,30.26,West,280,5.0,8.0,45,0.00,,,0.00,TxWx,2013-04-24 22:49:00,
2013-04-24 17:55:00,51.6,30.0,30.26,WSW,257,1.9,2.5,45,0.00,,,0.00,TxWx,2013-04-24 22:55:00,
2013-04-24 18:00:00,51.7,32.0,30.26,SW,235,6.2,9.3,47,0.00,,,0.00,TxWx,2013-04-24 23:00:00,
2013-04-24 18:05:00,51.3,30.0,30.26,SSW,212,5.6,11.1,47,0.00,,,0.00,TxWx,2013-04-24 23:05:00,
2013-04-24 18:11:00,51.3,30.0,30.26,SSE,167,1.9,5.6,46,0.00,,,0.00,TxWx,2013-04-24 23:11:00,
2013-04-24 18:16:00,51.6,32.0,30.26,SW,235,3.7,7.4,47,0.00,,,0.00,TxWx,2013-04-24 23:16:00,
2013-04-24 18:21:00,51.7,30.0,30.25,SW,235,3.1,5.6,45,0.00,,,0.00,TxWx,2013-04-24 23:21:00,
2013-04-24 18:27:00,51.7,31.0,30.25,WSW,257,2.5,4.3,46,0.00,,,0.00,TxWx,2013-04-24 23:27:00,
2013-04-24 18:32:00,51.9,29.0,30.25,SW,235,2.5,2.5,44,0.00,,,0.00,TxWx,2013-04-24 23:32:00,
2013-04-24 18:37:00,51.7,31.0,30.25,SW,235,4.3,7.4,46,0.00,,,0.00,TxWx,2013-04-24 23:37:00,
2013-04-24 18:43:00,51.5,30.0,30.25,South,190,5.0,8.7,45,0.00,,,0.00,TxWx,2013-04-24 23:43:00,
2013-04-24 18:48:00,51.4,29.0,30.25,West,280,1.9,5.6,45,0.00,,,0.00,TxWx,2013-04-24 23:48:00,
2013-04-24 18:54:00,51.2,30.0,30.25,SW,235,2.5,5.6,47,0.00,,,0.00,TxWx,2013-04-24 23:54:00,
2013-04-24 19:00:00,51.1,29.0,30.25,WSW,257,2.5,5.0,45,0.00,,,0.00,TxWx,2013-04-25 00:00:00,
2013-04-24 19:05:00,51.0,30.0,30.25,West,280,6.2,9.3,46,0.00,,,0.00,TxWx,2013-04-25 00:05:00,
2013-04-24 19:10:00,50.8,30.0,30.25,WSW,257,3.7,5.0,47,0.00,,,0.00,TxWx,2013-04-25 00:10:00,
2013-04-24 19:15:00,50.7,30.0,30.25,SW,235,6.8,7.4,46,0.00,,,0.00,TxWx,2013-04-25 00:15:00,
2013-04-24 19:21:00,50.6,30.0,30.25,WSW,257,3.7,4.3,46,0.00,,,0.00,TxWx,2013-04-25 00:21:00,
2013-04-24 19:26:00,50.7,30.0,30.25,WSW,257,5.6,6.2,46,0.00,,,0.00,TxWx,2013-04-25 00:26:00,
2013-04-24 19:32:00,50.5,29.0,30.25,WSW,257,5.0,9.3,45,0.00,,,0.00,TxWx,2013-04-25 00:32:00,
2013-04-24 19:38:00,50.5,30.0,30.25,SW,235,3.1,3.7,46,0.00,,,0.00,TxWx,2013-04-25 00:38:00,
2013-04-24 19:43:00,50.2,29.0,30.25,WSW,257,3.7,5.6,47,0.00,,,0.00,TxWx,2013-04-25 00:43:00,
2013-04-24 19:49:00,50.1,30.0,30.25,SW,235,3.7,5.0,47,0.00,,,0.00,TxWx,2013-04-25 00:49:00,
2013-04-24 19:54:00,49.8,31.0,30.25,SW,235,3.1,4.3,49,0.00,,,0.00,TxWx,2013-04-25 00:54:00,
2013-04-24 19:59:00,49.6,31.0,30.25,SW,235,2.5,3.1,49,0.00,,,0.00,TxWx,2013-04-25 00:59:00,
2013-04-24 20:05:00,49.3,30.0,30.26,South,190,1.9,4.3,50,0.00,,,0.00,TxWx,2013-04-25 01:05:00,
2013-04-24 20:10:00,48.9,30.0,30.26,SW,235,2.5,3.1,51,0.00,,,0.00,TxWx,2013-04-25 01:10:00,
2013-04-24 20:16:00,48.6,31.0,30.26,SSW,212,5.0,5.0,52,0.00,,,0.00,TxWx,2013-04-25 01:16:00,
2013-04-24 20:21:00,48.4,30.0,30.26,SSW,212,1.2,4.3,53,0.00,,,0.00,TxWx,2013-04-25 01:21:00,
2013-04-24 20:26:00,48.2,31.0,30.26,SSW,212,1.9,3.7,54,0.00,,,0.00,TxWx,2013-04-25 01:26:00,
2013-04-24 20:32:00,47.9,32.0,30.26,WSW,257,2.5,2.5,54,0.00,,,0.00,TxWx,2013-04-25 01:32:00,
2013-04-24 20:37:00,47.8,32.0,30.27,WSW,257,3.1,3.7,55,0.00,,,0.00,TxWx,2013-04-25 01:37:00,
2013-04-24 20:42:00,47.5,31.0,30.27,SW,235,1.2,3.1,56,0.00,,,0.00,TxWx,2013-04-25 01:42:00,
2013-04-24 20:48:00,47.3,32.0,30.27,South,190,1.9,3.7,56,0.00,,,0.00,TxWx,2013-04-25 01:48:00,
2013-04-24 20:53:00,47.0,32.0,30.27,SW,235,1.9,3.7,57,0.00,,,0.00,TxWx,2013-04-25 01:53:00,
2013-04-24 20:58:00,46.9,33.0,30.27,SSW,212,2.5,5.0,57,0.00,,,0.00,TxWx,2013-04-25 01:58:00,
2013-04-24 21:04:00,46.7,33.0,30.26,South,190,3.1,4.3,57,0.00,,,0.00,TxWx,2013-04-25 02:04:00,
2013-04-24 21:09:00,46.6,33.0,30.26,WSW,257,1.9,5.0,58,0.00,,,0.00,TxWx,2013-04-25 02:09:00,
2013-04-24 21:14:00,46.4,32.0,30.26,South,190,2.5,3.7,58,0.00,,,0.00,TxWx,2013-04-25 02:14:00,
2013-04-24 21:19:00,46.1,32.0,30.26,SSW,212,1.9,3.7,59,0.00,,,0.00,TxWx,2013-04-25 02:19:00,
2013-04-24 21:24:00,45.8,33.0,30.26,SSW,212,3.1,3.1,60,0.00,,,0.00,TxWx,2013-04-25 02:24:00,
2013-04-24 21:30:00,45.5,31.0,30.26,SSW,212,1.9,2.5,60,0.00,,,0.00,TxWx,2013-04-25 02:30:00,
2013-04-24 21:35:00,45.3,32.0,30.26,SSW,212,1.9,3.1,61,0.00,,,0.00,TxWx,2013-04-25 02:35:00,
2013-04-24 21:40:00,45.1,32.0,30.27,SW,235,1.9,3.7,61,0.00,,,0.00,TxWx,2013-04-25 02:40:00,
2013-04-24 21:45:00,44.8,33.0,30.27,SW,235,1.9,2.5,62,0.00,,,0.00,TxWx,2013-04-25 02:45:00,
2013-04-24 21:51:00,44.7,33.0,30.27,South,190,1.9,3.1,62,0.00,,,0.00,TxWx,2013-04-25 02:51:00,
2013-04-24 21:56:00,44.6,33.0,30.27,SSW,212,2.5,2.5,62,0.00,,,0.00,TxWx,2013-04-25 02:56:00,
2013-04-24 22:02:00,44.5,31.0,30.27,SW,235,2.5,3.7,63,0.00,,,0.00,TxWx,2013-04-25 03:02:00,
2013-04-24 22:07:00,44.5,33.0,30.28,SSW,212,1.9,4.3,62,0.00,,,0.00,TxWx,2013-04-25 03:07:00,
2013-04-24 22:12:00,44.4,31.0,30.28,South,190,3.1,3.1,62,0.00,,,0.00,TxWx,2013-04-25 03:12:00,
2013-04-24 22:18:00,44.5,31.0,30.28,South,190,1.2,2.5,62,0.00,,,0.00,TxWx,2013-04-25 03:18:00,
2013-04-24 22:23:00,44.3,31.0,30.28,South,190,1.9,3.1,63,0.00,,,0.00,TxWx,2013-04-25 03:23:00,
2013-04-24 22:28:00,44.3,31.0,30.29,SSW,212,2.5,4.3,63,0.00,,,0.00,TxWx,2013-04-25 03:28:00,
2013-04-24 22:34:00,44.3,31.0,30.29,West,280,1.2,3.7,63,0.00,,,0.00,TxWx,2013-04-25 03:34:00,
2013-04-24 22:39:00,44.4,31.0,30.29,SSW,212,1.9,1.9,62,0.00,,,0.00,TxWx,2013-04-25 03:39:00,
2013-04-24 22:44:00,44.4,31.0,30.29,South,190,1.2,3.1,63,0.00,,,0.00,TxWx,2013-04-25 03:44:00,
2013-04-24 22:50:00,44.2,32.0,30.30,WSW,257,2.5,3.1,63,0.00,,,0.00,TxWx,2013-04-25 03:50:00,
2013-04-24 22:55:00,44.0,32.0,30.30,WSW,257,1.2,1.9,63,0.00,,,0.00,TxWx,2013-04-25 03:55:00,
2013-04-24 23:01:00,43.7,32.0,30.30,South,190,1.2,3.1,64,0.00,,,0.00,TxWx,2013-04-25 04:01:00,
2013-04-24 23:03:00,43.7,32.0,30.31,SSW,212,1.9,2.5,64,0.00,,,0.00,TxWx,2013-04-25 04:03:00,
2013-04-24 23:07:00,43.6,33.0,30.31,SW,235,1.9,1.9,65,0.00,,,0.00,TxWx,2013-04-25 04:07:00,
2013-04-24 23:11:00,43.4,32.0,30.30,South,190,3.1,3.7,65,0.00,,,0.00,TxWx,2013-04-25 04:11:00,
2013-04-24 23:12:00,43.4,31.0,30.30,SW,235,2.5,4.3,65,0.00,,,0.00,TxWx,2013-04-25 04:12:00,
2013-04-24 23:17:00,43.5,32.0,30.31,SSW,212,1.9,3.7,65,0.00,,,0.00,TxWx,2013-04-25 04:17:00,
2013-04-24 23:23:00,43.5,32.0,30.30,South,190,1.9,2.5,65,0.00,,,0.00,TxWx,2013-04-25 04:23:00,
2013-04-24 23:29:00,43.3,32.0,30.30,SSW,212,1.9,3.1,66,0.00,,,0.00,TxWx,2013-04-25 04:29:00,
2013-04-24 23:34:00,43.3,32.0,30.30,South,190,4.3,5.6,66,0.00,,,0.00,TxWx,2013-04-25 04:34:00,
2013-04-24 23:39:00,43.2,32.0,30.30,SW,235,3.1,4.3,66,0.00,,,0.00,TxWx,2013-04-25 04:39:00,
2013-04-24 23:45:00,43.1,33.0,30.30,SSW,212,1.9,3.1,67,0.00,,,0.00,TxWx,2013-04-25 04:45:00,
2013-04-24 23:50:00,43.0,33.0,30.30,South,190,2.5,5.0,67,0.00,,,0.00,TxWx,2013-04-25 04:50:00,
2013-04-24 23:56:00,42.9,33.0,30.30,SSW,212,1.2,3.1,67,0.00,,,0.00,TxWx,2013-04-25 04:56:00,